This demonstration page uses our WeatherBlox Daily Observations layout. Learn more.

36.17497, -115.13722

Hourly Observations for January 29, 2020

Temp ( °F °C ) Dew Point ( °F °C ) Humidity (%) Winds ( mph kmh ) Pressure ( in mb ) Visibility ( mi km ) Precip ( " mm )
12:53 am 00:53 Clear 47 8.3 26 -3.3 44 44 W 8 13 30.06 1018 10 16.0934 0 0
1:53 am 01:53 Clear 48 8.9 25 -3.9 41 41 VRB 3 6 30.06 1018 10 16.0934 0 0
2:53 am 02:53 Clear 47 8.3 25 -3.9 42 42 NNW 6 9 30.05 1018 10 16.0934 0 0
3:53 am 03:53 Clear 50 10 25 -3.9 38 38 NW 15 24 30.04 1017 10 16.0934 0 0
4:53 am 04:53 Clear 50 10 23 -5 35 35 N 14 22 30.05 1018 10 16.0934 0 0
5:53 am 05:53 Clear 50 10 22 -5.6 33 33 NNW 13 20 30.06 1018 10 16.0934 0 0
6:53 am 06:53 Mostly Cloudy 55 12.8 24 -4.4 30 30 NW 26 43 30.08 1019 10 16.0934 0 0
7:53 am 07:53 Cloudy with Light Rain 55 12.8 25 -3.9 31 31 NW 24 39 30.09 1019 10 16.0934 0.001 0.001
8:53 am 08:53 Sunny 55 12.8 25 -3.9 31 31 NNW 23 37 30.13 1020 10 16.0934 0.001 0.001
9:53 am 09:53 Sunny 58 14.4 24 -4.4 27 27 NW 29 46 30.13 1020 10 16.0934 0 0
10:53 am 10:53 Mostly Cloudy 59 15 23 -5 25 25 NW 22 35 30.14 1021 10 16.0934 0 0
11:53 am 11:53 Cloudy 59 15 22 -5.6 24 24 E 6 9 30.14 1021 10 16.0934 0 0
12:53 pm 12:53 Cloudy 61 16.1 21 -6.1 21 21 VRB 5 7 30.1 1019 10 16.0934 0 0
1:53 pm 13:53 Cloudy 63 17.2 21 -6.1 20 20 ENE 8 13 30.09 1019 10 16.0934 0 0
2:53 pm 14:53 Cloudy 64 17.8 20 -6.7 18 18 N 12 19 30.09 1019 10 16.0934 0 0
3:53 pm 15:53 Sunny 63 17.2 19 -7.2 18 18 NE 15 24 30.09 1019 10 16.0934 0 0
4:53 pm 16:53 Sunny 61 16.1 18 -7.8 19 19 NNE 17 28 30.11 1020 10 16.0934 0 0
5:53 pm 17:53 Clear 59 15 18 -7.8 20 20 N 9 15 30.12 1020 10 16.0934 0 0
6:53 pm 18:53 Clear 58 14.4 17 -8.3 20 20 N 9 15 30.15 1021 10 16.0934 0 0
7:53 pm 19:53 Clear 55 12.8 19 -7.2 24 24 NNW 8 13 30.17 1022 10 16.0934 0 0
8:53 pm 20:53 Clear 53 11.7 19 -7.2 26 26 N 8 13 30.19 1023 10 16.0934 0 0
9:53 pm 21:53 Clear 53 11.7 19 -7.2 26 26 NNW 7 11 30.2 1023 10 16.0934 0 0
10:53 pm 22:53 Clear 51 10.6 18 -7.8 27 27 NNE 7 11 30.2 1023 10 16.0934 0 0
11:53 pm 23:53 Clear 51 10.6 18 -7.8 27 27 N 9 15 30.18 1022 10 16.0934 0 0

Powered by AerisWeather